• In Hungary
  • List of Countries
  • For 7 days
  • Water Temperature
  • Satellite Maps
  • Weather Map
  • News
  • Weather Widgets
  • user-avatar
    Login

    Hourly Weather Bijeljina

    Today, 24 October, Tuesday

    Time Temperature Precipitation Wind Pressure Humidity
    00:00 +8°C° 0.3 mm 5 mps 749 mmHg 88%
    01:00 +8°C° 0 mm 5 mps 749 mmHg 88%
    02:00 +8°C° 0.9 mm 5 mps 749 mmHg 88%
    03:00 +8°C° 0.9 mm 5 mps 749 mmHg 88%
    04:00 +8°C° 0.9 mm 6 mps 749 mmHg 88%
    05:00 +8°C° 1.8 mm 6 mps 749 mmHg 87%
    06:00 +8°C° 1.8 mm 6 mps 750 mmHg 86%
    07:00 +8°C° 1.8 mm 7 mps 750 mmHg 85%
    08:00 +8°C° 2.6 mm 7 mps 750 mmHg 85%
    09:00 +8°C° 2.6 mm 7 mps 750 mmHg 85%
    10:00 +8°C° 2.6 mm 7 mps 751 mmHg 84%
    11:00 +8°C° 2.1 mm 7 mps 751 mmHg 83%
    12:00 +9°C° 2.1 mm 6 mps 751 mmHg 83%
    13:00 +9°C° 2.1 mm 6 mps 752 mmHg 82%
    14:00 +9°C° 2 mm 5 mps 752 mmHg 82%
    15:00 +9°C° 2 mm 5 mps 752 mmHg 81%
    16:00 +9°C° 2 mm 5 mps 752 mmHg 81%
    17:00 +9°C° 1.3 mm 5 mps 753 mmHg 81%
    18:00 +9°C° 1.3 mm 5 mps 754 mmHg 81%
    19:00 +9°C° 1.3 mm 5 mps 754 mmHg 81%
    20:00 +9°C° 0.8 mm 5 mps 755 mmHg 82%
    21:00 +10°C° 0.8 mm 4 mps 756 mmHg 82%
    22:00 +8°C° 0.8 mm 4 mps 756 mmHg 82%
    23:00 +8°C° 0.2 mm 4 mps 757 mmHg 82%

    Tomorrow, 25 October, Wednesday

    Time Temperature Precipitation Wind Pressure Humidity
    00:00 +8°C° 0.2 mm 4 mps 757 mmHg 83%
    01:00 +8°C° 0.2 mm 3 mps 758 mmHg 83%
    02:00 +8°C° 0.1 mm 3 mps 758 mmHg 84%
    03:00 +8°C° 0.1 mm 3 mps 759 mmHg 84%
    04:00 +8°C° 0.1 mm 2 mps 759 mmHg 85%
    05:00 +8°C° 0.1 mm 2 mps 759 mmHg 85%
    06:00 +8°C° 0.1 mm 2 mps 760 mmHg 86%
    07:00 +7°C° 0.1 mm 2 mps 760 mmHg 86%
    08:00 +8°C° 0 mm 2 mps 761 mmHg 82%
    09:00 +9°C° 0 mm 2 mps 761 mmHg 79%
    10:00 +10°C° 0 mm 2 mps 761 mmHg 75%
    11:00 +12°C° 0 mm 2 mps 762 mmHg 71%
    12:00 +14°C° 0 mm 2 mps 762 mmHg 68%
    13:00 +15°C° 0 mm 2 mps 762 mmHg 64%
    14:00 +14°C° 0 mm 2 mps 762 mmHg 66%
    15:00 +14°C° 0 mm 1 mps 762 mmHg 68%
    16:00 +14°C° 0 mm 1 mps 762 mmHg 69%
    17:00 +13°C° 0 mm 1 mps 762 mmHg 73%
    18:00 +12°C° 0 mm 1 mps 762 mmHg 76%
    19:00 +11°C° 0 mm 1 mps 763 mmHg 80%
    20:00 +10°C° 0 mm 1 mps 763 mmHg 81%
    21:00 +10°C° 0 mm 1 mps 763 mmHg 83%
    22:00 +10°C° 0 mm 1 mps 763 mmHg 85%
    23:00 +10°C° 0 mm 1 mps 763 mmHg 85%

    Day after tomorrow, 26 October, Thursday

    Time Temperature Precipitation Wind Pressure Humidity
    00:00 +9°C° 0 mm 1 mps 763 mmHg 86%
    01:00 +9°C° 0 mm 1 mps 763 mmHg 87%
    02:00 +9°C° 0 mm 1 mps 763 mmHg 87%
    03:00 +9°C° 0 mm 1 mps 763 mmHg 88%
    04:00 +9°C° 0 mm 1 mps 763 mmHg 88%
    05:00 +9°C° 0 mm 1 mps 763 mmHg 88%
    06:00 +9°C° 0 mm 1 mps 763 mmHg 87%
    07:00 +9°C° 0 mm 1 mps 763 mmHg 86%
    08:00 +11°C° 0 mm 1 mps 763 mmHg 78%
    09:00 +14°C° 0 mm 1 mps 763 mmHg 70%
    10:00 +15°C° 0 mm 0 mps 763 mmHg 62%
    11:00 +18°C° 0 mm 1 mps 762 mmHg 58%
    12:00 +19°C° 0 mm 1 mps 762 mmHg 54%
    13:00 +20°C° 0 mm 1 mps 762 mmHg 50%
    14:00 +17°C° 0 mm 0 mps 761 mmHg 53%
    15:00 +16°C° 0 mm 0 mps 761 mmHg 57%
    16:00 +16°C° 0 mm 0 mps 761 mmHg 60%
    17:00 +16°C° 0 mm 1 mps 761 mmHg 64%
    18:00 +14°C° 0 mm 1 mps 761 mmHg 67%
    19:00 +13°C° 0 mm 1 mps 761 mmHg 71%
    20:00 +13°C° 0 mm 1 mps 761 mmHg 72%
    21:00 +13°C° 0 mm 1 mps 761 mmHg 74%
    22:00 +12°C° 0 mm 1 mps 761 mmHg 75%
    23:00 +12°C° 0 mm 1 mps 761 mmHg 75%

    27 October, Friday

    Time Temperature Precipitation Wind Pressure Humidity
    00:00 +12°C° 0 mm 1 mps 760 mmHg 76%
    01:00 +12°C° 0 mm 1 mps 760 mmHg 76%
    02:00 +12°C° 0 mm 1 mps 760 mmHg 76%
    03:00 +12°C° 0 mm 1 mps 759 mmHg 76%
    04:00 +11°C° 0 mm 1 mps 759 mmHg 76%
    05:00 +11°C° 0 mm 1 mps 758 mmHg 75%
    06:00 +12°C° 0 mm 1 mps 758 mmHg 74%
    07:00 +12°C° 0 mm 1 mps 758 mmHg 73%
    08:00 +14°C° 0 mm 1 mps 757 mmHg 65%
    09:00 +16°C° 0 mm 1 mps 757 mmHg 57%
    10:00 +18°C° 0 mm 0 mps 757 mmHg 50%
    11:00 +19°C° 0 mm 0 mps 756 mmHg 47%
    12:00 +22°C° 0 mm 1 mps 755 mmHg 44%
    13:00 +23°C° 0 mm 1 mps 754 mmHg 41%
    14:00 +22°C° 0 mm 1 mps 753 mmHg 46%
    15:00 +19°C° 0 mm 0 mps 753 mmHg 50%
    16:00 +18°C° 0 mm 0 mps 752 mmHg 55%
    17:00 +19°C° 0 mm 1 mps 752 mmHg 57%
    18:00 +18°C° 0 mm 1 mps 752 mmHg 59%
    19:00 +16°C° 0 mm 1 mps 752 mmHg 61%
    20:00 +16°C° 0 mm 1 mps 752 mmHg 63%
    21:00 +15°C° 0 mm 2 mps 752 mmHg 64%
    22:00 +15°C° 0 mm 2 mps 752 mmHg 65%
    23:00 +15°C° 0.3 mm 2 mps 753 mmHg 70%

    28 October, Saturday

    Time Temperature Precipitation Wind Pressure Humidity
    00:00 +13°C° 0.3 mm 3 mps 753 mmHg 74%
    01:00 +13°C° 0.3 mm 3 mps 753 mmHg 78%
    02:00 +12°C° 0.5 mm 3 mps 753 mmHg 78%
    03:00 +11°C° 0.5 mm 3 mps 754 mmHg 79%
    04:00 +11°C° 0.5 mm 3 mps 754 mmHg 80%
    05:00 +10°C° 0 mm 3 mps 754 mmHg 80%
    06:00 +10°C° 0 mm 3 mps 754 mmHg 80%
    07:00 +10°C° 0 mm 4 mps 755 mmHg 79%
    08:00 +11°C° 0 mm 4 mps 755 mmHg 74%
    09:00 +11°C° 0 mm 4 mps 754 mmHg 69%
    10:00 +12°C° 0 mm 5 mps 754 mmHg 64%
    11:00 +12°C° 0 mm 5 mps 754 mmHg 63%
    12:00 +12°C° 0 mm 4 mps 754 mmHg 62%
    13:00 +12°C° 0 mm 4 mps 753 mmHg 61%
    14:00 +12°C° 0 mm 4 mps 753 mmHg 62%
    15:00 +12°C° 0 mm 3 mps 753 mmHg 64%
    16:00 +13°C° 0 mm 2 mps 752 mmHg 65%
    17:00 +12°C° 0 mm 2 mps 752 mmHg 67%
    18:00 +10°C° 0 mm 2 mps 752 mmHg 70%
    19:00 +9°C° 0 mm 2 mps 753 mmHg 73%
    20:00 +9°C° 0 mm 2 mps 752 mmHg 75%
    21:00 +8°C° 0 mm 2 mps 752 mmHg 77%
    22:00 +8°C° 0 mm 2 mps 752 mmHg 79%
    23:00 +7°C° 0 mm 2 mps 752 mmHg 80%

    29 October, Sunday

    Time Temperature Precipitation Wind Pressure Humidity
    00:00 +7°C° 0 mm 2 mps 752 mmHg 80%
    01:00 +8°C° 0 mm 1 mps 752 mmHg 81%
    02:00 +6°C° 0 mm 2 mps 751 mmHg 82%
    03:00 +6°C° 0 mm 2 mps 751 mmHg 82%
    04:00 +6°C° 0 mm 2 mps 750 mmHg 83%
    05:00 +6°C° 0 mm 2 mps 750 mmHg 82%
    06:00 +6°C° 0 mm 2 mps 750 mmHg 81%
    07:00 +6°C° 0 mm 2 mps 749 mmHg 81%
    08:00 +8°C° 0 mm 2 mps 749 mmHg 72%
    09:00 +10°C° 0 mm 2 mps 748 mmHg 63%
    10:00 +13°C° 0 mm 2 mps 748 mmHg 54%
    11:00 +14°C° 0 mm 2 mps 747 mmHg 49%
    12:00 +15°C° 0 mm 2 mps 747 mmHg 44%
    13:00 +16°C° 0 mm 2 mps 746 mmHg 39%
    14:00 +15°C° 0 mm 2 mps 746 mmHg 43%
    15:00 +14°C° 0 mm 1 mps 746 mmHg 47%
    16:00 +14°C° 0 mm 1 mps 746 mmHg 51%
    17:00 +13°C° 0.2 mm 2 mps 747 mmHg 58%
    18:00 +10°C° 0.2 mm 3 mps 747 mmHg 65%
    19:00 +8°C° 0.2 mm 4 mps 748 mmHg 72%
    20:00 +8°C° 0.1 mm 4 mps 749 mmHg 75%
    21:00 +9°C° 0.1 mm 3 mps 749 mmHg 78%
    22:00 +8°C° 0.1 mm 3 mps 750 mmHg 81%
    23:00 +8°C° 0.1 mm 3 mps 750 mmHg 80%

    30 October, Monday

    Time Temperature Precipitation Wind Pressure Humidity
    00:00 +7°C° 0.1 mm 3 mps 751 mmHg 79%
    01:00 +7°C° 0.1 mm 3 mps 751 mmHg 78%
    02:00 +5°C° 0 mm 3 mps 751 mmHg 77%
    03:00 +4°C° 0 mm 3 mps 752 mmHg 77%
    04:00 +4°C° 0 mm 3 mps 752 mmHg 77%
    05:00 +3°C° 0 mm 3 mps 752 mmHg 77%
    06:00 +3°C° 0 mm 3 mps 753 mmHg 77%
    07:00 +3°C° 0 mm 3 mps 753 mmHg 78%
    08:00 +4°C° 0 mm 3 mps 754 mmHg 70%
    09:00 +5°C° 0 mm 4 mps 754 mmHg 63%
    10:00 +7°C° 0 mm 4 mps 754 mmHg 56%
    11:00 +7°C° 0 mm 5 mps 754 mmHg 53%
    12:00 +8°C° 0 mm 5 mps 754 mmHg 49%
    13:00 +8°C° 0 mm 5 mps 754 mmHg 45%
    14:00 +8°C° 0 mm 4 mps 754 mmHg 47%
    15:00 +8°C° 0 mm 4 mps 754 mmHg 48%
    16:00 +8°C° 0 mm 3 mps 754 mmHg 50%
    17:00 +7°C° 0 mm 3 mps 755 mmHg 52%
    18:00 +5°C° 0 mm 3 mps 755 mmHg 55%
    19:00 +5°C° 0 mm 2 mps 756 mmHg 58%
    20:00 +5°C° 0 mm 2 mps 756 mmHg 59%
    21:00 +4°C° 0 mm 2 mps 757 mmHg 61%
    22:00 +3°C° 0 mm 3 mps 757 mmHg 62%
    23:00 +3°C° 0 mm 3 mps 757 mmHg 64%
    Show more